Regional Weather Roundup
Issued by NWS

Home | Current Version | Previous Version | Graphics & Text | Print | Product List | Glossary On
Versions: 1 2 3 4 5 6 7 8 9 10 11 12 13 14 15 16 17 18 19 20 21 22 23 24 25 26 27 28 29 30 31 32 33 34 35 36 37 38 39 40 41 42 43 44 45 46 47 48 49 50
000
ASUS43 KTOP 230908
RWRKS

WEATHER ROUNDUP FOR KANSAS
NATIONAL WEATHER SERVICE GOODLAND KS
400 AM CDT SUN APR 23 2017

NOTE:  "FAIR" INDICATES FEW OR NO CLOUDS BELOW 12,000 FEET WITH NO
SIGNIFICANT WEATHER AND/OR OBSTRUCTIONS TO VISIBILITY.

KSZ001>006-013>018-027>032-041>047-231000-
NORTHWEST KANSAS

CITY           SKY/WX    TMP DP  RH WIND       PRES   REMARKS
GOODLAND       CLEAR     41  31  67 SW13      30.17F
HAYS           CLEAR     33  31  92 CALM      30.21F
HILL CITY      CLEAR     36  31  82 W6        30.21F
RUSSELL        CLEAR     38  32  79 SW6       30.19F
$$

KSZ061>065-074>080-084>089-231000-
SOUTHWEST KANSAS

CITY           SKY/WX    TMP DP  RH WIND       PRES   REMARKS
DODGE CITY     CLEAR     36  31  82 SW5       30.23F
ELKHART          N/A     38  27  65 SW9         N/A
GARDEN CITY    CLEAR     33  29  85 W6        30.23S
GREAT BEND     CLEAR     35  33  92 VRB3      30.22S
LIBERAL        CLEAR     36  27  69 W7        30.24F
PRATT          CLEAR     36  33  90 NW7       30.22S
$$

KSZ066>073-081>083-090>101-231000-
SOUTHEAST KANSAS

CITY           SKY/WX    TMP DP  RH WIND       PRES   REMARKS
CHANUTE        CLEAR     43  35  73 N6        30.15F
COFFEYVILLE    CLEAR     43  37  79 N7        30.15S
HUTCHINSON     CLEAR     36  34  92 W5        30.20S
MEDICINE LODGE   N/A     37  35  92 N5        30.21S
NEWTON         CLEAR     43  34  70 N6        30.20S
PARSONS        CLEAR     43  36  76 N6        30.16S
WICHITA INTL   CLEAR     41  37  86 NW5       30.19F
WICHITA JABRA  CLEAR     44  34  67 N8        30.19S
WICHITA MCCONL CLEAR     44  34  67 N5        30.19S
WINFIELD       CLEAR     38  35  89 N3        30.19F
$$

KSZ007>012-019>026-033>040-048>060-102>105-231000-
NORTHEAST KANSAS

CITY           SKY/WX    TMP DP  RH WIND       PRES   REMARKS
CONCORDIA      CLEAR     39  33  79 CALM      30.19F
EMPORIA        CLEAR     42  36  79 W6        30.18S
LAWRENCE       CLEAR     37  35  92 NW6       30.18S
MANHATTAN      CLEAR     35  32  88 CALM      30.20S
MARYSVILLE     CLEAR     36  32  87 CALM      30.20R
OLATHE IND     CLEAR     40  32  73 N5        30.17S
OLATHE EXE     CLEAR     47  32  56 N7        30.16S
SALINA         CLEAR     41  35  79 CALM      30.21F
TOPEKA BILLARD CLEAR     39  39 100 CALM      30.18F
TOPEKA FORBES  CLEAR     40  35  83 NW6       30.17F
$$




USA.gov is the U.S. government's official web portal to all federal, state and local government web resources and services.